User: anonymous   Login
Location: Stull Observatory
(42.2506°N, 77.7903°W)
Time: 03:56:46
(UTC-05:00)
Language:

Abrixas rocket - Orbit

View from above orbital plane
View from above orbital plane
View from above satellite
View from above satellite

Ground track
Ground track

The orbit data is extracted from the following two-line orbital elements,

1 25723U 99022C   17057.14673264  .00008507  00000-0  14296-3 0  9999
2 25723  48.4172  38.7951 0010548 223.3292 136.6823 15.52469046989233
Epoch (UTC): 26 February 2017 03:31:17
Eccentricity: 0.0010548
inclination: 48.4172°
perigee height: 402 km
apogee height: 416 km
right ascension of ascending node: 38.7951°
argument of perigee: 223.3292°
revolutions per day: 15.52469046
mean anomaly at epoch: 136.6823°
orbit number at epoch: 98923

The dashed part of the orbit path shows where the satellite is in the earth's shadow,  

DLR